Weather History for Clarksville, TN

Change the Weather History Date:

Monday, March 25, 2013

  Actual Average Record
Temperature  
Mean Temperature 35 °F -  
Max Temperature 37 °F - 84 °F (1959)
Min Temperature 32 °F - 22 °F (1960)
Degree Days  
Heating Degree Days 30    
Month to date heating degree days 571  
Since 1 July heating degree days 3488  
Cooling Degree Days 0    
Month to date cooling degree days 0  
Moisture  
Dew Point 29 °F    
Average Humidity 81    
Maximum Humidity 92    
Minimum Humidity 70    
Precipitation  
Precipitation 0.01 in - 1.12 in (1993)
Month to date precipitation 4.12  
Sea Level Pressure  
Sea Level Pressure 29.95 in    
Wind  
Wind Speed 13 mph (WNW)    
Max Wind Speed 23 mph    
Max Gust Speed 32 mph    
Visibility 5 miles    
Events Fog , Snow    
T = Trace of Precipitation, MM = Missing Value Source: NWS Daily Summary

Daily Weather History Graph

Daily Weather History Graph

Search for Another Location

Airport:

Trip Planner

Search our weather history database for the weather conditions in past years. The results will help you decide how hot, cold, wet, or windy it might be!

Date:

Astronomy

Mar. 25, 2013 Rise Set
Actual Time 6:45 AM CDT 7:06 PM CDT
Civil Twilight 6:19 AM CDT 7:31 PM CDT
Nautical Twilight 5:49 AM CDT 8:02 PM CDT
Astronomical Twilight 5:18 AM CDT 8:33 PM CDT
Moon 5:38 PM CDT (3/25) 5:26 AM CDT (3/25)
Length of Visible Light 13h 12m
Length of Day
12h 20m
Waxing Gibbous, 96% of the Moon is Illuminated
Mar 25
Waxing Gibbous
Mar 27
Full
Apr 2
Last Quarter
Apr 10
New
Apr 18
First Quarter

Hourly Weather History & Observations

Time (CDT) Temp. Windchill Dew Point Humidity Pressure Visibility Wind Dir Wind Speed Gust Speed Precip Events Conditions
12:52 AM 34.0 °F 22.7 °F 28.9 °F 82% 29.74 in 10.0 mi West 19.6 mph 33.4 mph 0.00 in   Overcast
1:15 AM 33.8 °F 22.8 °F 28.4 °F 81% 29.74 in 2.5 mi West 18.4 mph 27.6 mph 0.00 in Snow Light Snow
1:22 AM 33.8 °F 22.8 °F 28.4 °F 81% 29.74 in 3.0 mi West 18.4 mph 24.2 mph 0.00 in Snow Light Snow
1:52 AM 33.1 °F 22.6 °F 28.9 °F 85% 29.76 in 5.0 mi West 16.1 mph 28.8 mph 0.00 in Snow Light Snow
2:33 AM 33.8 °F 23.5 °F 28.4 °F 81% 29.75 in 2.5 mi West 16.1 mph 27.6 mph 0.00 in Snow Light Snow
2:48 AM 33.8 °F 23.5 °F 28.4 °F 81% 29.75 in 1.8 mi West 16.1 mph 24.2 mph 0.00 in Snow Light Snow
2:52 AM 33.1 °F 23.4 °F 28.9 °F 85% 29.76 in 1.8 mi West 13.8 mph 26.5 mph 0.00 in Snow Light Snow
3:18 AM 32.0 °F 20.5 °F 28.4 °F 87% 29.76 in 1.2 mi West 18.4 mph 26.5 mph 0.00 in Snow Light Snow
3:32 AM 32.0 °F 22.1 °F 28.4 °F 87% 29.76 in 1.5 mi West 13.8 mph 26.5 mph 0.00 in Snow Light Snow
3:52 AM 32.0 °F 22.1 °F 28.9 °F 88% 29.77 in 2.0 mi West 13.8 mph 21.9 mph 0.00 in Snow Light Snow
4:03 AM 32.0 °F 22.1 °F 28.4 °F 87% 29.77 in 1.8 mi West 13.8 mph - 0.00 in Snow Light Snow
4:18 AM 32.0 °F 21.6 °F 28.4 °F 87% 29.77 in 1.8 mi West 15.0 mph - 0.00 in Snow Light Snow
4:24 AM 32.0 °F 21.6 °F 28.4 °F 87% 29.77 in 2.0 mi West 15.0 mph - 0.00 in Snow Light Snow
4:52 AM 32.0 °F 23.0 °F 28.9 °F 88% 29.79 in 2.0 mi West 11.5 mph - 0.00 in Snow Light Snow
4:59 AM 32.0 °F 22.1 °F 28.4 °F 87% 29.78 in 1.5 mi West 13.8 mph 20.7 mph 0.00 in Snow Light Snow
5:18 AM 32.0 °F 22.5 °F 30.2 °F 93% 29.78 in 1.5 mi West 12.7 mph - 0.00 in Snow Light Snow
5:34 AM 32.0 °F 22.1 °F 30.2 °F 93% 29.79 in 1.2 mi West 13.8 mph 20.7 mph 0.00 in Snow Light Snow
5:52 AM 32.0 °F 22.1 °F 30.0 °F 92% 29.80 in 1.2 mi West 13.8 mph 24.2 mph 0.00 in Snow Light Snow
6:22 AM 32.0 °F 21.6 °F 28.4 °F 87% 29.80 in 2.5 mi West 15.0 mph - 0.00 in Snow Light Snow
6:52 AM 32.0 °F 21.6 °F 28.9 °F 88% 29.82 in 1.5 mi West 15.0 mph - 0.00 in Snow Light Snow
6:59 AM 32.0 °F 22.5 °F 28.4 °F 87% 29.81 in 2.0 mi West 12.7 mph - 0.00 in Snow Light Snow
7:13 AM 32.0 °F 22.1 °F 28.4 °F 87% 29.82 in 4.0 mi West 13.8 mph 19.6 mph 0.00 in Snow Light Snow
7:52 AM 33.1 °F 22.6 °F 27.0 °F 78% 29.85 in 10.0 mi West 16.1 mph 25.3 mph 0.00 in   Overcast
8:38 AM 32.0 °F 22.5 °F 28.4 °F 87% 29.87 in 2.0 mi West 12.7 mph - 0.00 in Snow Light Snow
8:52 AM 32.0 °F 22.1 °F 28.0 °F 85% 29.88 in 1.8 mi West 13.8 mph - 0.00 in Snow Light Snow
9:20 AM 32.0 °F 22.5 °F 28.4 °F 87% 29.88 in 1.0 mi West 12.7 mph - 0.00 in Snow Light Snow
9:31 AM 32.0 °F 21.6 °F 28.4 °F 87% 29.89 in 2.5 mi West 15.0 mph 20.7 mph 0.00 in Snow Light Snow
9:40 AM 33.8 °F 23.5 °F 28.4 °F 81% 29.89 in 3.0 mi West 16.1 mph 21.9 mph 0.00 in Snow Light Snow
9:52 AM 33.1 °F 23.0 °F 28.0 °F 82% 29.91 in 5.0 mi West 15.0 mph - 0.00 in Snow Light Snow
10:15 AM 33.8 °F 24.8 °F 28.4 °F 81% 29.91 in 4.0 mi West 12.7 mph 21.9 mph 0.00 in Snow Light Snow
10:39 AM 33.8 °F 23.2 °F 26.6 °F 75% 29.92 in 9.0 mi West 17.3 mph 24.2 mph 0.00 in   Overcast
10:52 AM 34.0 °F 23.8 °F 27.0 °F 75% 29.93 in 9.0 mi West 16.1 mph 26.5 mph 0.00 in   Overcast
11:52 AM 35.1 °F 24.5 °F 27.0 °F 72% 29.95 in 10.0 mi West 18.4 mph 25.3 mph N/A   Overcast
12:52 PM 36.0 °F 25.6 °F 26.1 °F 67% 29.96 in 10.0 mi West 18.4 mph 27.6 mph N/A   Overcast
1:05 PM 35.6 °F 26.2 °F 26.6 °F 70% 29.96 in 10.0 mi West 15.0 mph 23.0 mph N/A   Overcast
1:15 PM 35.6 °F 25.2 °F 26.6 °F 70% 29.96 in 10.0 mi West 18.4 mph 25.3 mph N/A   Overcast
1:42 PM 35.6 °F 24.5 °F 26.6 °F 70% 29.96 in 10.0 mi West 20.7 mph 25.3 mph N/A   Overcast
1:52 PM 35.1 °F 24.8 °F 27.0 °F 72% 29.98 in 8.0 mi West 17.3 mph 26.5 mph N/A   Overcast
1:59 PM 35.6 °F 25.5 °F 26.6 °F 70% 29.97 in 10.0 mi West 17.3 mph 24.2 mph N/A   Overcast
2:52 PM 36.0 °F 26.3 °F 28.0 °F 73% 29.99 in 9.0 mi West 16.1 mph 25.3 mph 0.00 in Snow Light Snow
3:02 PM 35.6 °F 25.5 °F 28.4 °F 75% 29.98 in 5.0 mi West 17.3 mph 25.3 mph 0.00 in Snow Light Snow
3:52 PM 36.0 °F 26.7 °F 28.0 °F 73% 30.01 in 10.0 mi West 15.0 mph 24.2 mph 0.00 in   Overcast
4:04 PM 35.6 °F 26.2 °F 28.4 °F 75% 30.00 in 9.0 mi West 15.0 mph 23.0 mph 0.00 in Snow Light Snow
4:15 PM 35.6 °F 24.5 °F 26.6 °F 70% 30.00 in 9.0 mi West 20.7 mph 29.9 mph 0.00 in Snow Light Snow
4:31 PM 35.6 °F 25.5 °F 28.4 °F 75% 30.01 in 10.0 mi West 17.3 mph 23.0 mph 0.00 in   Overcast
4:49 PM 35.6 °F 25.9 °F 28.4 °F 75% 30.01 in 8.0 mi West 16.1 mph 23.0 mph 0.00 in Snow Light Snow
4:52 PM 36.0 °F 25.3 °F 28.0 °F 73% 30.03 in 9.0 mi West 19.6 mph 26.5 mph 0.00 in   Overcast
5:24 PM 35.6 °F 27.5 °F 28.4 °F 75% 30.02 in 1.8 mi WNW 11.5 mph 27.6 mph 0.00 in Snow Light Snow
5:41 PM 33.8 °F 24.3 °F 30.2 °F 87% 30.03 in 0.8 mi WNW 13.8 mph - 0.00 in Snow Light Snow
5:47 PM 33.8 °F 25.3 °F 30.2 °F 87% 30.03 in 2.0 mi WNW 11.5 mph - 0.00 in Snow Light Snow
5:52 PM 34.0 °F 26.0 °F 30.0 °F 85% 30.05 in 4.0 mi WNW 10.4 mph - 0.00 in Snow Light Snow
6:07 PM 33.8 °F 25.8 °F 30.2 °F 87% 30.04 in 3.0 mi WNW 10.4 mph - 0.00 in Snow Light Snow
6:16 PM 33.8 °F 24.8 °F 30.2 °F 87% 30.05 in 2.0 mi NW 12.7 mph - 0.00 in Snow Light Snow
6:19 PM 33.8 °F 25.3 °F 30.2 °F 87% 30.05 in 1.8 mi NW 11.5 mph - 0.00 in Snow Light Snow
6:31 PM 33.8 °F 25.8 °F 30.2 °F 87% 30.06 in 0.5 mi NW 10.4 mph 19.6 mph 0.00 in Fog , Snow Snow
6:38 PM 33.8 °F 24.8 °F 30.2 °F 87% 30.06 in 1.0 mi WNW 12.7 mph - 0.00 in Snow Light Snow
6:52 PM 32.0 °F 24.8 °F 30.9 °F 96% 30.08 in 1.8 mi WNW 8.1 mph - 0.00 in Snow Light Snow
6:54 PM 32.0 °F 25.6 °F 30.2 °F 93% 30.06 in 3.0 mi WNW 6.9 mph - 0.00 in Snow Light Snow
7:02 PM 32.0 °F 24.8 °F 30.2 °F 93% 30.07 in 7.0 mi WNW 8.1 mph - 0.00 in Snow Light Snow
7:17 PM 33.8 °F 25.8 °F 30.2 °F 87% 30.08 in 2.5 mi WNW 10.4 mph - 0.00 in Snow Light Snow
7:21 PM 33.8 °F 25.8 °F 30.2 °F 87% 30.08 in 0.8 mi WNW 10.4 mph - 0.01 in Snow Light Snow
7:31 PM 32.0 °F 24.2 °F 30.2 °F 93% 30.08 in 2.0 mi WNW 9.2 mph - 0.01 in Snow Light Snow
7:38 PM 32.0 °F 24.8 °F 30.2 °F 93% 30.08 in 8.0 mi West 8.1 mph - 0.01 in   Overcast
7:52 PM 32.0 °F 24.2 °F 30.0 °F 92% 30.10 in 10.0 mi West 9.2 mph - 0.01 in   Mostly Cloudy
8:22 PM 33.8 °F 23.9 °F 30.2 °F 87% 30.10 in 2.0 mi West 15.0 mph 20.7 mph 0.00 in Snow Light Snow
8:29 PM 32.0 °F 23.0 °F 30.2 °F 93% 30.09 in 1.0 mi WNW 11.5 mph 20.7 mph 0.00 in Snow Light Snow
8:36 PM 32.0 °F 23.6 °F 30.2 °F 93% 30.10 in 3.0 mi WNW 10.4 mph - 0.00 in Snow Light Snow
8:52 PM 33.1 °F 25.5 °F 30.0 °F 89% 30.12 in 9.0 mi WNW 9.2 mph - 0.00 in   Overcast
9:49 PM 33.8 °F 27.7 °F 30.2 °F 87% 30.11 in 5.0 mi WNW 6.9 mph - 0.00 in Snow Light Snow
9:52 PM 33.1 °F 26.9 °F 30.0 °F 89% 30.13 in 4.0 mi WNW 6.9 mph - 0.00 in Snow Light Snow
10:07 PM 33.8 °F 27.0 °F 30.2 °F 87% 30.12 in 2.0 mi WNW 8.1 mph - 0.00 in Snow Light Snow
10:20 PM 33.8 °F 27.0 °F 30.2 °F 87% 30.12 in 5.0 mi WNW 8.1 mph - 0.00 in Snow Light Snow
10:36 PM 33.8 °F 27.7 °F 30.2 °F 87% 30.13 in 10.0 mi West 6.9 mph - 0.00 in   Overcast
10:40 PM 32.0 °F 25.6 °F 30.2 °F 93% 30.13 in 10.0 mi West 6.9 mph - 0.00 in   Overcast
10:52 PM 32.0 °F 24.8 °F 30.0 °F 92% 30.14 in 8.0 mi West 8.1 mph - 0.00 in   Overcast
11:52 PM 33.1 °F 25.5 °F 28.9 °F 85% 30.15 in 5.0 mi WNW 9.2 mph - 0.00 in Snow Light Snow